This is the latest recevied weather packets stored in our database for station/object G4KVI. If no packets are shown the sender has not sent any weather packets the latest 10 day(s).
| Time | Temp. | Humidity | Pressure | Rain* | Wind** | Luminosity | Snow |
|---|---|---|---|---|---|---|---|
| 1787464803 | 10° C | 92% | 1028.2 hPa | 0 mm | - | 40 W/m² | - |
| 1787464503 | 9.44° C | 93% | 1028.2 hPa | 0 mm | - | 40 W/m² | - |
| 1787464203 | 9.44° C | 93% | 1028.2 hPa | 0 mm | - | 33 W/m² | - |
| 1787463903 | 8.89° C | 93% | 1028.2 hPa | 0 mm | - | 27 W/m² | - |
| 1787463603 | 8.33° C | 93% | 1028.1 hPa | 0 mm | - | 22 W/m² | - |
| 1787463303 | 8.33° C | 93% | 1028 hPa | 0 mm | - | 17 W/m² | - |
| 1787463003 | 7.78° C | 93% | 1027.9 hPa | 0 mm | - | 13 W/m² | - |
| 1787462703 | 7.78° C | 93% | 1028.1 hPa | 0 mm | - | 10 W/m² | - |
| 1787462403 | 7.78° C | 93% | 1027.9 hPa | 0 mm | - | 7 W/m² | - |
| 1787462103 | 7.78° C | 93% | 1027.9 hPa | 0 mm | - | 5 W/m² | - |
| 1787461803 | 7.78° C | 93% | 1027.9 hPa | 0 mm | - | 3 W/m² | - |
| 1787461503 | 8.33° C | 92% | 1027.8 hPa | 0 mm | - | 2 W/m² | - |
| 1787461203 | 8.33° C | 92% | 1027.8 hPa | 0 mm | - | 1 W/m² | - |
| 1787460903 | 8.33° C | 93% | 1027.8 hPa | 0 mm | - | 0 W/m² | - |
| 1787460603 | 8.33° C | 92% | 1027.6 hPa | 0 mm | - | 0 W/m² | - |
| 1787460303 | 8.33° C | 92% | 1027.6 hPa | 0 mm | - | 0 W/m² | - |
| 1787460003 | 8.33° C | 92% | 1027.7 hPa | 0 mm | - | 0 W/m² | - |
| 1787459703 | 8.33° C | 92% | 1027.5 hPa | 0 mm | - | 0 W/m² | - |
| 1787459403 | 8.33° C | 92% | 1027.5 hPa | 0 mm | - | 0 W/m² | - |
| 1787459103 | 8.33° C | 92% | 1027.5 hPa | 0 mm | - | 0 W/m² | - |
| 1787458803 | 8.33° C | 92% | 1027.5 hPa | 0 mm | - | 0 W/m² | - |
| 1787458503 | 8.33° C | 92% | 1027.6 hPa | 0 mm | - | 0 W/m² | - |
| 1787458203 | 8.33° C | 91% | 1027.5 hPa | 0 mm | - | 0 W/m² | - |
| 1787457903 | 8.33° C | 91% | 1027.5 hPa | 0 mm | - | 0 W/m² | - |
| 1787457603 | 8.33° C | 91% | 1027.5 hPa | 0 mm | - | 0 W/m² | - |
* Rain latest hour (hover to see other rain measurements)
** Current wind speed in m/s (hover to see current wind gust speed)